Location: 22
(39.7117°N, 89.5929°W)
Time: 08:20:49
(UTC-05:00)

Transit 2A - Pass Details

Date: 03 August 2024
Orbit: 590 x 961 km, 66.7° (Epoch: 13 September)

Event Time Altitude Azimuth Distance (km) Brightness Sun altitude
Rises 04:18:44 0° 161° (SSE) 3,144 9.0 -17.2°
Reaches altitude 10° 04:21:50 10° 140° (SE) 2,303 8.5 -16.8°
Maximum altitude 04:25:03 16° 102° (ESE) 1,969 8.6 -16.3°
Drops below altitude 10° 04:28:28 10° 65° (ENE) 2,468 9.9 -15.8°
Sets 04:31:57 0° 46° (NE) 3,482 11.3 -15.3°
